Capitol Logistics 434


KELP
El Paso International Airport
El Paso, Texas, US
KSMF
Sacramento International Airport
Sacramento, California, US

Activity Log

Date Flight Route Aircraft Duration
01/02/2020 CPX434 ATKNN5 FLOGS ITUCO Q2 BOILE J50 EHF NURAY SUUTR2 B738 2h 56m
02/01/2019 CPX434 ATKNN5 FLOGS ITUCO Q2 BOILE J50 EHF NURAY SUUTR2 B752 2h 35m

Route Details

Aircraft Information
Primary: Boeing 757-200SF
Backup: Boeing 737-800BCF
Route Data
Distance: 852nm
Sched. Duration: 2h 35m
Avg. Duration: 2h 46m (+12m)
Times Flown: 2
Recm'd Route: ATKNN5 FLOGS ITUCO Q2 BOILE J50 EHF NURAY SUUTR2
Planned Altitude: 36,000ft
Origin Wx: KELP 032351Z VRB03KT 10SM FEW110 SCT250 39/08 A2996 RMK AO2 SLP057 CB DSNT E TCU DSNT SW SHRA DSNT E T03890083 10394 20350 56021
Dest. Wx: KSMF 032353Z 19008KT 10SM CLR 31/09 A2993 RMK AO2 SLP136 T03110089 10311 20222 56015
Notes:

Financial History
Total Freight: 72,647lbs
Average Load: 36,324lbs/flt
Fuel Used: 33,604lbs
Avg. Fuel Used: 16,802lbs/flt
Fuel Expense: $30,244
Avg. Fuel Expense: $15,122
Avg. Fuel Cost: $0.90/lbs
Total Gross Income: $94,595
Pilot Pay: $298
Total Expenses: $10,320
Total Revenue: $53,118
Average Revenue: $47,297.72